Time,TemperatureF,DewpointF,PressureIn,WindDirection,WindDirectionDegrees,WindSpeedMPH,WindSpeedGustMPH,Humidity,HourlyPrecipIn,Conditions,Clouds,dailyrainin,SoftwareType,DateUTC
2013-02-25 00:01:00,33.0,27.0,-100.00,NNW,336,1.0,1.0,73,0.00,,,-99.99,,2013-02-25 05:01:00,
2013-02-25 00:11:00,33.0,27.0,-100.00,NW,326,1.0,1.0,72,0.00,,,-99.99,,2013-02-25 05:11:00,
2013-02-25 00:22:00,31.0,23.0,-100.00,NW,313,0.0,1.0,72,0.00,,,-99.99,,2013-02-25 05:22:00,
2013-02-25 00:32:00,33.0,27.0,-100.00,NW,312,1.0,1.0,75,0.00,,,-99.99,,2013-02-25 05:32:00,
2013-02-25 00:42:00,31.0,25.0,-100.00,WNW,288,1.0,1.0,75,0.00,,,-99.99,,2013-02-25 05:42:00,
2013-02-25 00:52:00,30.0,23.0,-100.00,WNW,290,1.0,1.0,73,0.00,,,-99.99,,2013-02-25 05:52:00,
2013-02-25 01:02:00,30.0,25.0,-100.00,NW,309,1.0,1.0,75,0.00,,,-99.99,,2013-02-25 06:02:00,
2013-02-25 01:12:00,31.0,23.0,-100.00,NW,316,1.0,1.0,73,0.00,,,-99.99,,2013-02-25 06:12:00,
2013-02-25 01:21:00,30.0,23.0,-100.00,WNW,285,0.0,1.0,73,0.00,,,-99.99,,2013-02-25 06:21:00,
2013-02-25 01:32:00,30.0,23.0,-100.00,WNW,290,1.0,1.0,73,0.00,,,-99.99,,2013-02-25 06:32:00,
2013-02-25 01:42:00,30.0,23.0,-100.00,NW,316,0.0,1.0,73,0.00,,,-99.99,,2013-02-25 06:42:00,
2013-02-25 01:51:00,30.0,23.0,-100.00,NNW,330,0.0,1.0,73,0.00,,,-99.99,,2013-02-25 06:51:00,
2013-02-25 02:01:00,30.0,25.0,-100.00,NNW,328,0.0,1.0,75,0.00,,,-99.99,,2013-02-25 07:01:00,
2013-02-25 02:11:00,30.0,23.0,-100.00,NNW,344,0.0,1.0,75,0.00,,,-99.99,,2013-02-25 07:11:00,
2013-02-25 02:21:00,29.0,23.0,-100.00,ENE,63,0.0,1.0,75,0.00,,,-99.99,,2013-02-25 07:21:00,
2013-02-25 02:32:00,29.0,23.0,-100.00,NE,40,0.0,1.0,75,0.00,,,-99.99,,2013-02-25 07:32:00,
2013-02-25 02:42:00,29.0,23.0,-100.00,SSW,213,0.0,1.0,75,0.00,,,-99.99,,2013-02-25 07:42:00,
2013-02-25 02:52:00,29.0,23.0,-100.00,SW,224,0.0,1.0,75,0.00,,,-99.99,,2013-02-25 07:52:00,
2013-02-25 03:01:00,29.0,23.0,-100.00,South,176,0.0,1.0,76,0.00,,,-99.99,,2013-02-25 08:01:00,
2013-02-25 03:11:00,28.0,23.0,-100.00,SSE,149,0.0,1.0,76,0.00,,,-99.99,,2013-02-25 08:11:00,
2013-02-25 03:22:00,28.0,23.0,-100.00,South,183,0.0,1.0,76,0.00,,,-99.99,,2013-02-25 08:22:00,
2013-02-25 03:32:00,28.0,23.0,-100.00,South,182,1.0,1.0,77,0.00,,,-99.99,,2013-02-25 08:32:00,
2013-02-25 03:42:00,28.0,23.0,-100.00,SE,146,0.0,1.0,76,0.00,,,-99.99,,2013-02-25 08:42:00,
2013-02-25 03:52:00,27.0,21.0,-100.00,SE,136,0.0,1.0,77,0.00,,,-99.99,,2013-02-25 08:52:00,
2013-02-25 04:02:00,27.0,21.0,-100.00,SE,131,1.0,1.0,78,0.00,,,-99.99,,2013-02-25 09:02:00,
2013-02-25 04:12:00,27.0,23.0,-100.00,SE,146,1.0,2.0,80,0.00,,,-99.99,,2013-02-25 09:12:00,
2013-02-25 04:21:00,27.0,23.0,-100.00,SSE,168,0.0,2.0,80,0.00,,,-99.99,,2013-02-25 09:21:00,
2013-02-25 04:32:00,26.0,21.0,-100.00,SSE,151,1.0,2.0,80,0.00,,,-99.99,,2013-02-25 09:32:00,
2013-02-25 04:42:00,26.0,21.0,-100.00,SSE,158,1.0,2.0,81,0.00,,,-99.99,,2013-02-25 09:42:00,
2013-02-25 04:52:00,26.0,23.0,-100.00,SSE,151,0.0,2.0,82,0.00,,,-99.99,,2013-02-25 09:52:00,
2013-02-25 05:01:00,26.0,23.0,-100.00,SSW,196,0.0,2.0,82,0.00,,,-99.99,,2013-02-25 10:01:00,
2013-02-25 05:11:00,26.0,23.0,-100.00,SSW,193,1.0,2.0,84,0.00,,,-99.99,,2013-02-25 10:11:00,
2013-02-25 05:21:00,27.0,23.0,-100.00,SSW,196,0.0,2.0,84,0.00,,,-99.99,,2013-02-25 10:21:00,
2013-02-25 05:32:00,27.0,23.0,-100.00,SSW,206,1.0,2.0,84,0.00,,,-99.99,,2013-02-25 10:32:00,
2013-02-25 05:42:00,26.0,23.0,-100.00,SSW,213,0.0,2.0,84,0.00,,,-99.99,,2013-02-25 10:42:00,
2013-02-25 05:52:00,26.0,23.0,-100.00,SSE,162,0.0,2.0,85,0.00,,,-99.99,,2013-02-25 10:52:00,
2013-02-25 06:01:00,26.0,23.0,-100.00,SE,142,0.0,2.0,85,0.00,,,-99.99,,2013-02-25 11:01:00,
2013-02-25 06:11:00,26.0,23.0,-100.00,NNE,21,0.0,2.0,85,0.00,,,-99.99,,2013-02-25 11:11:00,
2013-02-25 06:22:00,26.0,23.0,-100.00,SSW,208,0.0,2.0,85,0.00,,,-99.99,,2013-02-25 11:22:00,
2013-02-25 06:32:00,27.0,23.0,-100.00,WSW,237,1.0,2.0,85,0.00,,,-99.99,,2013-02-25 11:32:00,
2013-02-25 06:42:00,26.0,23.0,-100.00,South,179,0.0,2.0,85,0.00,,,-99.99,,2013-02-25 11:42:00,
2013-02-25 06:52:00,26.0,23.0,-100.00,SW,224,1.0,2.0,86,0.00,,,-99.99,,2013-02-25 11:52:00,
2013-02-25 07:02:00,26.0,23.0,-100.00,SW,217,1.0,2.0,86,0.00,,,-99.99,,2013-02-25 12:02:00,
2013-02-25 07:11:00,28.0,27.0,-100.00,SW,218,3.0,4.0,88,0.00,,,-99.99,,2013-02-25 12:11:00,
2013-02-25 07:22:00,28.0,25.0,-100.00,SSW,211,2.0,4.0,88,0.00,,,-99.99,,2013-02-25 12:22:00,
2013-02-25 07:32:00,28.0,27.0,-100.00,WSW,249,1.0,4.0,88,0.00,,,-99.99,,2013-02-25 12:32:00,
2013-02-25 07:42:00,28.0,25.0,-100.00,SW,232,0.0,4.0,88,0.00,,,-99.99,,2013-02-25 12:42:00,
2013-02-25 07:54:00,28.0,27.0,-100.00,WSW,247,2.0,4.0,89,0.00,,,-99.99,,2013-02-25 12:54:00,
2013-02-25 08:02:00,26.0,23.0,-100.00,SW,231,2.0,4.0,86,0.00,,,-99.99,,2013-02-25 13:02:00,
2013-02-25 08:12:00,28.0,27.0,-100.00,SSW,193,1.0,4.0,89,0.00,,,-99.99,,2013-02-25 13:12:00,
2013-02-25 08:23:00,27.0,25.0,-100.00,SSW,197,1.0,4.0,88,0.00,,,-99.99,,2013-02-25 13:23:00,
2013-02-25 08:32:00,27.0,25.0,-100.00,North,8,0.0,4.0,86,0.00,,,-99.99,,2013-02-25 13:32:00,
2013-02-25 08:42:00,30.0,28.0,-100.00,South,179,0.0,4.0,88,0.00,,,-99.99,,2013-02-25 13:42:00,
2013-02-25 08:52:00,29.0,27.0,-100.00,SSW,197,0.0,4.0,85,0.00,,,-99.99,,2013-02-25 13:52:00,
2013-02-25 09:03:00,31.0,28.0,-100.00,North,354,0.0,4.0,84,0.00,,,-99.99,,2013-02-25 14:03:00,
2013-02-25 09:18:00,31.0,27.0,-100.00,SSE,166,1.0,4.0,82,0.00,,,-99.99,,2013-02-25 14:18:00,
2013-02-25 09:32:00,32.0,27.0,-100.00,South,187,2.0,4.0,80,0.00,,,-99.99,,2013-02-25 14:32:00,
2013-02-25 09:42:00,32.0,27.0,-100.00,SW,223,1.0,4.0,80,0.00,,,-99.99,,2013-02-25 14:42:00,
2013-02-25 09:52:00,32.0,27.0,-100.00,South,176,2.0,4.0,78,0.00,,,-99.99,,2013-02-25 14:52:00,
2013-02-25 10:03:00,33.0,27.0,-100.00,South,182,2.0,4.0,76,0.00,,,-99.99,,2013-02-25 15:03:00,
2013-02-25 10:11:00,34.0,28.0,-100.00,South,179,4.0,6.0,76,0.00,,,-99.99,,2013-02-25 15:11:00,
2013-02-25 10:22:00,34.0,27.0,-100.00,SSE,162,4.0,6.0,75,0.00,,,-99.99,,2013-02-25 15:22:00,
2013-02-25 10:32:00,33.0,27.0,-100.00,SE,146,3.0,6.0,75,0.00,,,-99.99,,2013-02-25 15:32:00,
2013-02-25 10:42:00,34.0,27.0,-100.00,SSW,203,3.0,6.0,73,0.00,,,-99.99,,2013-02-25 15:42:00,
2013-02-25 10:52:00,34.0,27.0,-100.00,SSW,192,4.0,6.0,72,0.00,,,-99.99,,2013-02-25 15:52:00,
2013-02-25 11:02:00,37.0,30.0,-100.00,South,177,5.0,6.0,73,0.00,,,-99.99,,2013-02-25 16:02:00,
2013-02-25 11:12:00,36.0,27.0,-100.00,South,172,4.0,6.0,67,0.00,,,-99.99,,2013-02-25 16:12:00,
2013-02-25 11:22:00,37.0,27.0,-100.00,South,183,4.0,6.0,66,0.00,,,-99.99,,2013-02-25 16:22:00,
2013-02-25 11:32:00,36.0,23.0,-100.00,SE,138,3.0,6.0,59,0.00,,,-99.99,,2013-02-25 16:32:00,
2013-02-25 11:42:00,36.0,23.0,-100.00,SSW,199,2.0,6.0,58,0.00,,,-99.99,,2013-02-25 16:42:00,
2013-02-25 11:51:00,37.0,27.0,-100.00,SSE,163,2.0,6.0,63,0.00,,,-99.99,,2013-02-25 16:51:00,
2013-02-25 12:02:00,36.0,23.0,-100.00,South,175,4.0,6.0,54,0.00,,,-99.99,,2013-02-25 17:02:00,
2013-02-25 12:11:00,38.0,23.0,-100.00,SSE,160,4.0,6.0,54,0.00,,,-99.99,,2013-02-25 17:11:00,
2013-02-25 12:21:00,38.0,23.0,-100.00,South,180,4.0,6.0,53,0.00,,,-99.99,,2013-02-25 17:21:00,
2013-02-25 12:32:00,37.0,21.0,-100.00,SSW,210,5.0,8.0,53,0.00,,,-99.99,,2013-02-25 17:32:00,
2013-02-25 12:42:00,38.0,23.0,-100.00,SSE,148,5.0,8.0,51,0.00,,,-99.99,,2013-02-25 17:42:00,
2013-02-25 12:52:00,39.0,23.0,-100.00,South,182,2.0,8.0,51,0.00,,,-99.99,,2013-02-25 17:52:00,
2013-02-25 13:02:00,41.0,27.0,-100.00,SSE,166,4.0,8.0,56,0.00,,,-99.99,,2013-02-25 18:02:00,
2013-02-25 13:12:00,39.0,25.0,-100.00,SE,132,6.0,10.0,53,0.00,,,-99.99,,2013-02-25 18:12:00,
2013-02-25 13:21:00,38.0,23.0,-100.00,SE,144,9.0,12.0,51,0.00,,,-99.99,,2013-02-25 18:21:00,
2013-02-25 13:33:00,39.0,23.0,-100.00,SSE,165,5.0,12.0,51,0.00,,,-99.99,,2013-02-25 18:33:00,
2013-02-25 13:42:00,39.0,25.0,-100.00,SSW,207,4.0,12.0,54,0.00,,,-99.99,,2013-02-25 18:42:00,
2013-02-25 13:51:00,41.0,25.0,-100.00,SSW,204,5.0,12.0,51,0.00,,,-99.99,,2013-02-25 18:51:00,
2013-02-25 14:01:00,42.0,27.0,-100.00,SE,144,6.0,12.0,51,0.00,,,-99.99,,2013-02-25 19:01:00,
2013-02-25 14:11:00,41.0,25.0,-100.00,SSE,152,7.0,12.0,50,0.00,,,-99.99,,2013-02-25 19:11:00,
2013-02-25 14:22:00,40.0,25.0,-100.00,South,184,6.0,12.0,51,0.00,,,-99.99,,2013-02-25 19:22:00,
2013-02-25 14:32:00,41.0,23.0,-100.00,SE,144,6.0,12.0,49,0.00,,,-99.99,,2013-02-25 19:32:00,
2013-02-25 14:42:00,41.0,25.0,-100.00,SSE,149,5.0,12.0,50,0.00,,,-99.99,,2013-02-25 19:42:00,
2013-02-25 14:52:00,40.0,25.0,-100.00,SSE,156,7.0,12.0,50,0.00,,,-99.99,,2013-02-25 19:52:00,
2013-02-25 15:01:00,41.0,25.0,-100.00,SSW,201,7.0,12.0,50,0.00,,,-99.99,,2013-02-25 20:01:00,
2013-02-25 15:11:00,42.0,25.0,-100.00,SE,129,6.0,12.0,49,0.00,,,-99.99,,2013-02-25 20:11:00,
2013-02-25 15:22:00,41.0,25.0,-100.00,SSE,166,6.0,12.0,50,0.00,,,-99.99,,2013-02-25 20:22:00,
2013-02-25 15:32:00,43.0,27.0,-100.00,SE,125,5.0,12.0,49,0.00,,,-99.99,,2013-02-25 20:32:00,
2013-02-25 15:42:00,42.0,25.0,-100.00,SSE,160,6.0,12.0,49,0.00,,,-99.99,,2013-02-25 20:42:00,
2013-02-25 15:52:00,43.0,27.0,-100.00,South,186,4.0,12.0,50,0.00,,,-99.99,,2013-02-25 20:52:00,
2013-02-25 16:02:00,42.0,25.0,-100.00,SE,131,6.0,12.0,47,0.00,,,-99.99,,2013-02-25 21:02:00,
2013-02-25 16:11:00,44.0,28.0,-100.00,South,176,6.0,12.0,50,0.00,,,-99.99,,2013-02-25 21:11:00,
2013-02-25 16:21:00,42.0,23.0,-100.00,South,189,4.0,12.0,46,0.00,,,-99.99,,2013-02-25 21:21:00,
2013-02-25 16:32:00,42.0,23.0,-100.00,South,169,4.0,12.0,46,0.00,,,-99.99,,2013-02-25 21:32:00,
2013-02-25 16:42:00,42.0,23.0,-100.00,SSE,152,5.0,12.0,46,0.00,,,-99.99,,2013-02-25 21:42:00,
2013-02-25 16:52:00,43.0,25.0,-100.00,SE,136,5.0,12.0,46,0.00,,,-99.99,,2013-02-25 21:52:00,
2013-02-25 17:01:00,42.0,23.0,-100.00,SSE,152,6.0,12.0,46,0.00,,,-99.99,,2013-02-25 22:01:00,
2013-02-25 17:11:00,43.0,25.0,-100.00,SSW,196,5.0,12.0,47,0.00,,,-99.99,,2013-02-25 22:11:00,
2013-02-25 17:21:00,43.0,25.0,-100.00,SE,129,4.0,12.0,46,0.00,,,-99.99,,2013-02-25 22:21:00,
2013-02-25 17:32:00,43.0,25.0,-100.00,SSE,168,6.0,12.0,46,0.00,,,-99.99,,2013-02-25 22:32:00,
2013-02-25 17:42:00,43.0,25.0,-100.00,SE,146,3.0,12.0,47,0.00,,,-99.99,,2013-02-25 22:42:00,
2013-02-25 17:52:00,43.0,25.0,-100.00,SE,128,6.0,12.0,46,0.00,,,-99.99,,2013-02-25 22:52:00,
2013-02-25 18:01:00,42.0,25.0,-100.00,ESE,115,5.0,12.0,47,0.00,,,-99.99,,2013-02-25 23:01:00,
2013-02-25 18:11:00,42.0,25.0,-100.00,ESE,114,4.0,12.0,50,0.00,,,-99.99,,2013-02-25 23:11:00,
2013-02-25 18:22:00,41.0,25.0,-100.00,SE,125,5.0,12.0,51,0.00,,,-99.99,,2013-02-25 23:22:00,
2013-02-25 18:32:00,40.0,25.0,-100.00,ESE,107,4.0,12.0,53,0.00,,,-99.99,,2013-02-25 23:32:00,
2013-02-25 18:42:00,40.0,25.0,-100.00,ESE,120,4.0,12.0,54,0.00,,,-99.99,,2013-02-25 23:42:00,
2013-02-25 18:52:00,39.0,25.0,-100.00,SE,139,5.0,12.0,55,0.00,,,-99.99,,2013-02-25 23:52:00,
2013-02-25 19:02:00,38.0,25.0,-100.00,SE,134,4.0,12.0,56,0.00,,,-99.99,,2013-02-26 00:02:00,
2013-02-25 19:12:00,40.0,27.0,-100.00,ESE,122,4.0,12.0,59,0.00,,,-99.99,,2013-02-26 00:12:00,
2013-02-25 19:22:00,40.0,27.0,-100.00,SE,145,4.0,12.0,59,0.00,,,-99.99,,2013-02-26 00:22:00,
2013-02-25 19:32:00,40.0,27.0,-100.00,SE,136,5.0,12.0,59,0.00,,,-99.99,,2013-02-26 00:32:00,
2013-02-25 19:42:00,40.0,27.0,-100.00,SSE,151,6.0,12.0,59,0.00,,,-99.99,,2013-02-26 00:42:00,
2013-02-25 19:52:00,39.0,27.0,-100.00,SE,142,7.0,12.0,59,0.00,,,-99.99,,2013-02-26 00:52:00,
2013-02-25 20:02:00,38.0,28.0,-100.00,ESE,122,5.0,12.0,63,0.00,,,-99.99,,2013-02-26 01:02:00,
2013-02-25 20:11:00,38.0,28.0,-100.00,SE,127,4.0,12.0,66,0.00,,,-99.99,,2013-02-26 01:11:00,
2013-02-25 20:21:00,38.0,27.0,-100.00,ESE,120,5.0,12.0,64,0.00,,,-99.99,,2013-02-26 01:21:00,
2013-02-25 20:32:00,38.0,27.0,-100.00,SE,138,7.0,12.0,62,0.00,,,-99.99,,2013-02-26 01:32:00,
2013-02-25 20:42:00,38.0,27.0,-100.00,SE,129,7.0,12.0,63,0.00,,,-99.99,,2013-02-26 01:42:00,
2013-02-25 20:52:00,37.0,27.0,-100.00,ESE,114,6.0,12.0,66,0.00,,,-99.99,,2013-02-26 01:52:00,
2013-02-25 21:01:00,36.0,27.0,-100.00,ESE,114,5.0,12.0,67,0.00,,,-99.99,,2013-02-26 02:01:00,
2013-02-25 21:11:00,36.0,28.0,-100.00,East,84,6.0,12.0,69,0.00,,,-99.99,,2013-02-26 02:11:00,
2013-02-25 21:21:00,35.0,28.0,-100.00,ESE,115,6.0,12.0,75,0.00,,,-99.99,,2013-02-26 02:21:00,
2013-02-25 21:32:00,35.0,28.0,-100.00,ESE,115,7.0,12.0,76,0.00,,,-99.99,,2013-02-26 02:32:00,
2013-02-25 21:42:00,34.0,28.0,-100.00,ESE,111,6.0,12.0,77,0.00,,,-99.99,,2013-02-26 02:42:00,
2013-02-25 21:52:00,34.0,28.0,-100.00,ESE,121,6.0,12.0,77,0.00,,,-99.99,,2013-02-26 02:52:00,
2013-02-25 22:02:00,34.0,28.0,-100.00,ESE,105,6.0,12.0,78,0.00,,,-99.99,,2013-02-26 03:02:00,
2013-02-25 22:11:00,34.0,28.0,-100.00,ESE,112,6.0,6.0,78,0.00,,,-99.99,,2013-02-26 03:11:00,
2013-02-25 22:22:00,34.0,28.0,-100.00,SE,125,4.0,6.0,78,0.00,,,-99.99,,2013-02-26 03:22:00,
2013-02-25 22:32:00,32.0,27.0,-100.00,ESE,115,5.0,6.0,78,0.00,,,-99.99,,2013-02-26 03:32:00,
2013-02-25 22:42:00,31.0,27.0,-100.00,SE,127,4.0,6.0,77,0.00,,,-99.99,,2013-02-26 03:42:00,
2013-02-25 22:52:00,32.0,27.0,-100.00,SE,134,4.0,6.0,77,0.00,,,-99.99,,2013-02-26 03:52:00,
2013-02-25 23:01:00,32.0,27.0,-100.00,SE,127,4.0,6.0,76,0.00,,,-99.99,,2013-02-26 04:01:00,
2013-02-25 23:11:00,31.0,25.0,-100.00,ESE,117,2.0,6.0,76,0.00,,,-99.99,,2013-02-26 04:11:00,
2013-02-25 23:22:00,31.0,25.0,-100.00,ESE,112,2.0,6.0,77,0.00,,,-99.99,,2013-02-26 04:22:00,
2013-02-25 23:32:00,31.0,25.0,-100.00,ESE,107,2.0,6.0,77,0.00,,,-99.99,,2013-02-26 04:32:00,
2013-02-25 23:42:00,31.0,25.0,-100.00,ESE,112,4.0,6.0,77,0.00,,,-99.99,,2013-02-26 04:42:00,
2013-02-25 23:52:00,31.0,25.0,-100.00,SE,124,4.0,6.0,76,0.00,,,-99.99,,2013-02-26 04:52:00,